Weather in Blanes

Spain     41°40′44″N   2°46′50″E
temp.,
°C
wind,
m/s
gust,
m/s
humid.,
%
clouds,
%
prec.,
mm/h
press.,
hPa
HPBL,
m
10 may, mon
mon1023:00+15sw1290100 0.0 100716
02:00+15sw229099 0.1 100825
05:00+14wsw1188100 0.1 100713
08:00+15se0189100 0.4 100946
11:00+17ese0181100 0.1 1009347
14:00+20s5762100 0.8 1008821
17:00+19ssw68566 0.0 10081355
20:00+16ssw510670 0.0 1008602
11 may, tue
tue1123:00+12ssw36956 0.0 1009173
02:00+12wsw229298 0.0 100939
05:00+11w22810 0.0 100822
08:00+13w1267100 0.0 100870
11:00+18ese645357 0.0 10101288
14:00+17se556986 2.2 1012895
17:00+11nne4108886 3.0 1015458
20:00+13n127034 3.1 1016255
12 may, wed
wed1223:00+9sw12846 0.0 101847
02:00+9w22885 0.0 101835
05:00+9nnw228498 0.0 101738
08:00+11nnw227649 0.0 101698
11:00+18ssw254335 0.0 10141446
14:00+21ssw593591 0.0 10112036
17:00+22w710282 0.0 10092328
20:00+15n4105544 0.0 1012643
13 may, thu
thu1323:00+11nw227111 0.0 101421
02:00+11nw2171100 0.0 101419
05:00+11wnw117294 0.0 101327
08:00+12n1285100 0.7 1014107
11:00+12ne128063 0.8 1014165
14:00+15se557599 1.3 1013709
17:00+15se446998 0.3 1011704
20:00+14ssw2472100 0.3 1009353
14 may, fri
fri1423:00+13wnw2280100 0.1 100973
02:00+12nne357490 0.1 1008275
05:00+11n2375100 0.0 1008105
08:00+12wnw117394 0.0 1009108
11:00+16ssw015497 0.0 1009864
14:00+15s3366100 0.2 1010634
17:00+11nw2395100 6.1 1012180
20:00+12wnw1287100 8.4 1013130